TimeCDT,TemperatureF,Dew PointF,Humidity,Sea Level PressureIn,VisibilityMPH,Wind Direction,Wind SpeedMPH,Gust SpeedMPH,PrecipitationIn,Events,Conditions,WindDirDegrees,DateUTC
12:15 AM,78.8,59.0,51,30.15,10.0,South,3.5,-,N/A,,Clear,190,2013-09-11 05:15:00
12:35 AM,80.6,59.0,48,30.15,10.0,South,3.5,-,N/A,,Clear,190,2013-09-11 05:35:00
12:55 AM,80.6,59.0,48,30.15,10.0,Calm,Calm,-,N/A,,Clear,0,2013-09-11 05:55:00
1:15 AM,77.0,60.8,57,30.15,10.0,Calm,Calm,-,N/A,,Clear,0,2013-09-11 06:15:00
1:55 AM,71.6,60.8,69,30.16,10.0,Calm,Calm,-,N/A,,Partly Cloudy,0,2013-09-11 06:55:00
2:15 AM,71.6,62.6,73,30.16,10.0,Calm,Calm,-,N/A,,Partly Cloudy,0,2013-09-11 07:15:00
2:35 AM,71.6,62.6,73,30.16,10.0,Calm,Calm,-,N/A,,Clear,0,2013-09-11 07:35:00
2:55 AM,71.6,62.6,73,30.16,10.0,Calm,Calm,-,N/A,,Clear,0,2013-09-11 07:55:00
3:15 AM,71.6,62.6,73,30.16,10.0,Calm,Calm,-,N/A,,Clear,0,2013-09-11 08:15:00
3:35 AM,71.6,62.6,73,30.15,10.0,Calm,Calm,-,N/A,,Clear,0,2013-09-11 08:35:00
3:55 AM,69.8,62.6,78,30.16,10.0,Calm,Calm,-,N/A,,Clear,0,2013-09-11 08:55:00
4:15 AM,71.6,62.6,73,30.16,10.0,Calm,Calm,-,N/A,,Clear,0,2013-09-11 09:15:00
4:35 AM,71.6,62.6,73,30.16,10.0,Calm,Calm,-,N/A,,Clear,0,2013-09-11 09:35:00
4:55 AM,68.0,62.6,83,30.16,10.0,Calm,Calm,-,N/A,,Clear,0,2013-09-11 09:55:00
5:15 AM,69.8,62.6,78,30.16,10.0,Calm,Calm,-,N/A,,Clear,0,2013-09-11 10:15:00
5:35 AM,68.0,62.6,83,30.16,10.0,Calm,Calm,-,N/A,,Clear,0,2013-09-11 10:35:00
5:55 AM,68.0,62.6,83,30.16,10.0,Calm,Calm,-,N/A,,Clear,0,2013-09-11 10:55:00
6:15 AM,68.0,62.6,83,30.17,10.0,Calm,Calm,-,N/A,,Clear,0,2013-09-11 11:15:00
6:35 AM,68.0,62.6,83,30.17,10.0,Calm,Calm,-,N/A,,Clear,0,2013-09-11 11:35:00
6:45 AM,68.0,62.6,83,30.18,10.0,Calm,Calm,-,N/A,,Scattered Clouds,0,2013-09-11 11:45:00
7:45 AM,71.6,62.6,73,30.19,10.0,Calm,Calm,-,N/A,,Scattered Clouds,0,2013-09-11 12:45:00
8:45 AM,75.2,64.4,69,30.19,10.0,Calm,Calm,-,N/A,,Partly Cloudy,0,2013-09-11 13:45:00
9:45 AM,82.4,64.4,54,30.20,10.0,Calm,Calm,-,N/A,,Clear,0,2013-09-11 14:45:00
10:45 AM,84.2,66.2,55,30.20,10.0,SSW,3.5,-,N/A,,Clear,200,2013-09-11 15:45:00
11:45 AM,86.0,64.4,48,30.20,10.0,NW,6.9,-,N/A,,Clear,320,2013-09-11 16:45:00
12:45 PM,89.6,64.4,43,30.19,10.0,WNW,5.8,-,N/A,,Partly Cloudy,300,2013-09-11 17:45:00
1:50 PM,91.4,62.6,38,30.16,10.0,NNW,5.8,-,N/A,,Mostly Cloudy,340,2013-09-11 18:50:00
2:45 PM,91.4,60.8,36,30.14,10.0,West,9.2,-,N/A,,Mostly Cloudy,270,2013-09-11 19:45:00
3:55 PM,87.8,64.4,46,30.12,10.0,NNW,4.6,-,N/A,,Mostly Cloudy,330,2013-09-11 20:55:00
5:50 PM,86.0,66.2,51,30.11,10.0,Calm,Calm,-,N/A,,Scattered Clouds,0,2013-09-11 22:50:00
6:55 PM,82.4,64.4,54,30.11,10.0,Calm,Calm,-,N/A,,Scattered Clouds,0,2013-09-11 23:55:00
7:45 PM,80.6,66.2,61,30.11,10.0,Calm,Calm,-,N/A,,Partly Cloudy,0,2013-09-12 00:45:00
8:45 PM,78.8,66.2,65,30.13,10.0,Calm,Calm,-,N/A,,Partly Cloudy,0,2013-09-12 01:45:00
9:15 PM,77.0,66.2,69,30.14,10.0,Calm,Calm,-,N/A,,Clear,0,2013-09-12 02:15:00
9:35 PM,77.0,66.2,69,30.14,10.0,Calm,Calm,-,N/A,,Clear,0,2013-09-12 02:35:00
9:55 PM,75.2,66.2,73,30.15,10.0,Calm,Calm,-,N/A,,Clear,0,2013-09-12 02:55:00
10:15 PM,75.2,66.2,73,30.15,10.0,Calm,Calm,-,N/A,,Clear,0,2013-09-12 03:15:00
10:35 PM,75.2,66.2,73,30.15,10.0,Calm,Calm,-,N/A,,Clear,0,2013-09-12 03:35:00
10:55 PM,75.2,66.2,73,30.14,10.0,Calm,Calm,-,N/A,,Clear,0,2013-09-12 03:55:00
11:15 PM,75.2,66.2,73,30.14,10.0,Calm,Calm,-,N/A,,Clear,0,2013-09-12 04:15:00
11:35 PM,75.2,66.2,73,30.13,10.0,Calm,Calm,-,N/A,,Clear,0,2013-09-12 04:35:00
11:55 PM,73.4,66.2,78,30.13,10.0,Calm,Calm,-,N/A,,Clear,0,2013-09-12 04:55:00